Torna al catalogo

BEIDOU 3M1

AttivoNavigazioneMEO
NORAD 43001·PAYLOAD·🇨🇳 China

Lanciato Nov 5, 2017 da Xichang Satellite Launch Center

Loading…

Prossimi Passaggi (prossime 24 ore)

TLE

AggiornatoSource: CelesTrak SupGP

Epoca: Sep 15, 2026, 00:00 UTC

1 43001C 17069A   26258.00000000  .00000000  00000+0  00000+0 0  2580
2 43001  56.7747  60.1312 0007134 320.3881 170.5998  1.86231298    19

Traccia BEIDOU 3M1 in tempo reale con AllMySat

Download on the App Store